OpenBCM V1.07b12 (Linux)

Packet Radio Mailbox

DB0FHN

[JN59NK Nuernberg]

 Login: GUEST





  
UA9FBV > KEPS     25.04.03 08:01l 206 Lines 5445 Bytes #999 (0) @ AMSAT
BID : ORB03114.W
Read: DB0FHN GUEST
Subj: Orbital Elements  03114.WEATHER
Path: DB0FHN<DB0ZWI<DB0HOT<OK0PKL<OK0PPL<RZ6HXA<UA9FBV
Sent: 030425/0509Z @:UA9FBV.PRM.RUS.AS #:33972 [Perm] GATEWAY $:ORB03114.W
From: UA9FBV@UA9FBV.PRM.RUS.AS
To  : KEPS@AMSAT

HR AMSAT ORBITAL ELEMENTS FOR WEATHER SATELLITES
FROM WA5QGD FORT WORTH,TX April 24, 2003
SEND SUBSCRIBE/UNSUBSCRIBE TO majordomo@amsat.org ONLY
BID: ORB03114.W
TO ALL RADIO AMATEURS BT

Satellite: NOAA-10
Catalog number: 16969
Epoch time:      03114.47293390
Element set:     747
Inclination:       98.7357 deg
RA of node:       108.4841 deg
Eccentricity:    0.0011496
Arg of perigee:   258.6435 deg
Mean anomaly:     101.3454 deg
Mean motion:   14.27090405 rev/day
Decay rate:        8.1e-07 rev/day^2
Epoch rev:           86316
Checksum:              309

Satellite: NOAA-11
Catalog number: 19531
Epoch time:      03114.44475132
Element set:     583
Inclination:       98.8913 deg
RA of node:       195.5834 deg
Eccentricity:    0.0011864
Arg of perigee:    22.9909 deg
Mean anomaly:     337.2266 deg
Mean motion:   14.14568428 rev/day
Decay rate:       1.85e-06 rev/day^2
Epoch rev:           75197
Checksum:              325

Satellite: NOAA-12
Catalog number: 21263
Epoch time:      03114.42799541
Element set:      54
Inclination:       98.6340 deg
RA of node:       103.0009 deg
Eccentricity:    0.0012215
Arg of perigee:   188.7984 deg
Mean anomaly:     171.2983 deg
Mean motion:   14.25126353 rev/day
Decay rate:       2.02e-06 rev/day^2
Epoch rev:           62045
Checksum:              269

Satellite: MET-3/5
Catalog number: 21655
Epoch time:      03113.94592690
Element set:    0614
Inclination:      082.5590 deg
RA of node:       353.3928 deg
Eccentricity:    0.0014515
Arg of perigee:   039.9920 deg
Mean anomaly:     320.2270 deg
Mean motion:   13.16981614 rev/day
Decay rate:        5.1e-07 rev/day^2
Epoch rev:           56195
Checksum:              299

Satellite: MET-2/21
Catalog number: 22782
Epoch time:      03113.82655610
Element set:     576
Inclination:       82.5485 deg
RA of node:       163.9489 deg
Eccentricity:    0.0023079
Arg of perigee:   162.1837 deg
Mean anomaly:     198.0136 deg
Mean motion:   13.83537053 rev/day
Decay rate:        4.8e-07 rev/day^2
Epoch rev:           48697
Checksum:              329

Satellite: OKEAN-4
Catalog number: 23317
Epoch time:      03113.96939340
Element set:    0234
Inclination:      082.5373 deg
RA of node:       268.9747 deg
Eccentricity:    0.0022157
Arg of perigee:   196.1660 deg
Mean anomaly:     163.8855 deg
Mean motion:   14.81084383 rev/day
Decay rate:      1.285e-05 rev/day^2
Epoch rev:           45963
Checksum:              325

Satellite: NOAA-14
Catalog number: 23455
Epoch time:      03114.46395692
Element set:     605
Inclination:       99.1833 deg
RA of node:       134.7362 deg
Eccentricity:    0.0010117
Arg of perigee:    51.2125 deg
Mean anomaly:     308.9950 deg
Mean motion:   14.13321757 rev/day
Decay rate:        8.5e-07 rev/day^2
Epoch rev:           42864
Checksum:              289

Satellite: SICH-1
Catalog number: 23657
Epoch time:      03114.21776916
Element set:       6
Inclination:       82.5312 deg
RA of node:        49.5249 deg
Eccentricity:    0.0024243
Arg of perigee:   176.7219 deg
Mean anomaly:     183.4158 deg
Mean motion:   14.80132463 rev/day
Decay rate:      1.142e-05 rev/day^2
Epoch rev:           41179
Checksum:              281

Satellite: NOAA-15
Catalog number: 25338
Epoch time:      03114.44071372
Element set:      90
Inclination:       98.5471 deg
RA of node:       134.8266 deg
Eccentricity:    0.0011318
Arg of perigee:   124.7413 deg
Mean anomaly:     235.4834 deg
Mean motion:   14.24275041 rev/day
Decay rate:       1.50e-06 rev/day^2
Epoch rev:           25703
Checksum:              265

Satellite: RESURS
Catalog number: 25394
Epoch time:      03114.35455043
Element set:     502
Inclination:       98.6195 deg
RA of node:       191.0505 deg
Eccentricity:    0.0000466
Arg of perigee:   298.1932 deg
Mean anomaly:      61.9200 deg
Mean motion:   14.23901653 rev/day
Decay rate:       1.02e-06 rev/day^2
Epoch rev:           24875
Checksum:              267

Satellite: FENGYUN1
Catalog number: 25730
Epoch time:      03114.36143181
Element set:     819
Inclination:       98.6272 deg
RA of node:       136.3173 deg
Eccentricity:    0.0014449
Arg of perigee:   174.3356 deg
Mean anomaly:     185.7982 deg
Mean motion:   14.11741821 rev/day
Decay rate:        5.9e-07 rev/day^2
Epoch rev:           20377
Checksum:              294

Satellite: OKEAN-0
Catalog number: 25860
Epoch time:      03113.97998671
Element set:    0020
Inclination:      097.8554 deg
RA of node:       159.4032 deg
Eccentricity:    0.0000878
Arg of perigee:   118.9676 deg
Mean anomaly:     241.1621 deg
Mean motion:   14.72698361 rev/day
Decay rate:       4.44e-06 rev/day^2
Epoch rev:           20241
Checksum:              305

Satellite: NOAA-16
Catalog number: 26536
Epoch time:      03114.35229154
Element set:     301
Inclination:       98.9111 deg
RA of node:        62.1943 deg
Eccentricity:    0.0011358
Arg of perigee:   120.2845 deg
Mean anomaly:     239.9479 deg
Mean motion:   14.11941519 rev/day
Decay rate:       2.69e-06 rev/day^2
Epoch rev:           13329
Checksum:              291

Satellite: NOAA-17
Catalog number: 27453
Epoch time:      03114.45090429
Element set:     386
Inclination:       98.7444 deg
RA of node:       185.2828 deg
Eccentricity:    0.0012147
Arg of perigee:   164.6916 deg
Mean anomaly:     195.4633 deg
Mean motion:   14.23333706 rev/day
Decay rate:       2.17e-06 rev/day^2
Epoch rev:            4319
Checksum:              306



Read previous mail | Read next mail


 18.09.2025 12:50:45lGo back Go up